Weather History for KAUH - February, 2012

Change the Weather History Date:

Thursday, February 16, 2012

  Actual Average Record
Temperature  
Mean Temperature 28 °F -  
Max Temperature 38 °F 35 °F 64 °F (2011)
Min Temperature 17 °F 15 °F -16 °F (1979)
Degree Days  
Heating Degree Days 38    
Moisture  
Dew Point 23 °F    
Average Humidity 77    
Maximum Humidity 88    
Minimum Humidity 65    
Precipitation  
Precipitation 0.00 in - - ()
Sea Level Pressure  
Sea Level Pressure 30.19 in    
Wind  
Wind Speed 7 mph (WSW)    
Max Wind Speed 13 mph    
Max Gust Speed -    
Visibility 10 miles    
Events      
Averages and records for this station are not official NWS values.
T = Trace of Precipitation, MM = Missing Value Source: NWS Daily Summary

Daily Weather History Graph

Daily Weather History Graph

Search for Another Location

Airport or City:

Trip Planner

Search our weather history database for the weather conditions in past years. The results will help you decide how hot, cold, wet, or windy it might be!

Date:

Astronomy

Feb. 16, 2012 Rise Set
Actual Time 7:25 AM CST 6:07 PM CST
Civil Twilight 6:57 AM CST 6:35 PM CST
Nautical Twilight 6:25 AM CST 7:07 PM CST
Astronomical Twilight 5:53 AM CST 7:39 PM CST
Moon 3:24 AM CST (2/16) 12:58 PM CST (2/16)
Length of Visible Light 11h 38m
Length of Day
10h 41m
Waning Crescent, 28% of the Moon is Illuminated
Feb 16
Waning Crescent
Feb 21
New
Feb 29
First Quarter
Mar 8
Full
Mar 14
Last Quarter

Hourly Weather History & Observations

Time (CST) Temp. Windchill Dew Point Humidity Pressure Visibility Wind Dir Wind Speed Gust Speed Precip Events Conditions
12:35 AM 22.8 °F 13.6 °F 19.2 °F 86% 30.17 in 10.0 mi NW 8.1 mph - N/A   Clear
12:55 AM 21.6 °F 13.0 °F 18.1 °F 87% 30.18 in 10.0 mi WNW 6.9 mph - N/A   Clear
1:15 AM 21.7 °F 13.2 °F 18.3 °F 87% 30.18 in 10.0 mi WNW 6.9 mph - N/A   Clear
1:35 AM 21.2 °F 12.6 °F 17.6 °F 86% 30.18 in 10.0 mi WNW 6.9 mph - N/A   Clear
1:55 AM 22.6 °F 15.3 °F 18.7 °F 85% 30.19 in 10.0 mi WNW 5.8 mph - N/A   Clear
2:15 AM 21.7 °F 15.5 °F 18.0 °F 85% 30.19 in 10.0 mi WNW 4.6 mph - N/A   Clear
2:35 AM 21.9 °F 15.7 °F 18.0 °F 85% 30.19 in 10.0 mi WNW 4.6 mph - N/A   Clear
2:55 AM 21.0 °F 13.4 °F 17.2 °F 85% 30.19 in 10.0 mi WNW 5.8 mph - N/A   Clear
3:15 AM 20.7 °F 13.0 °F 16.9 °F 85% 30.19 in 10.0 mi West 5.8 mph - N/A   Clear
3:35 AM 21.2 °F 10.9 °F 17.4 °F 85% 30.20 in 10.0 mi WNW 9.2 mph - N/A   Clear
3:55 AM 21.0 °F 11.4 °F 17.1 °F 85% 30.19 in 10.0 mi West 8.1 mph - N/A   Clear
4:15 AM 21.9 °F 11.0 °F 18.0 °F 85% 30.20 in 10.0 mi West 10.4 mph - N/A   Clear
4:35 AM 19.6 °F 13.0 °F 15.8 °F 85% 30.20 in 10.0 mi WSW 4.6 mph - N/A   Clear
4:55 AM 21.0 °F 13.4 °F 17.4 °F 86% 30.21 in 10.0 mi West 5.8 mph - N/A   Clear
5:15 AM 20.3 °F 13.8 °F 16.7 °F 86% 30.21 in 10.0 mi West 4.6 mph - N/A   Clear
5:35 AM 21.0 °F 14.6 °F 17.4 °F 86% 30.21 in 10.0 mi West 4.6 mph - N/A   Clear
5:55 AM 21.2 °F 13.6 °F 17.2 °F 85% 30.21 in 10.0 mi WNW 5.8 mph - N/A   Clear
6:15 AM 19.2 °F 10.2 °F 15.1 °F 84% 30.22 in 10.0 mi West 6.9 mph - N/A   Clear
6:35 AM 18.0 °F 9.8 °F 14.7 °F 87% 30.23 in 10.0 mi WSW 5.8 mph - N/A   Clear
6:55 AM 18.5 °F 8.4 °F 15.4 °F 88% 30.24 in 10.0 mi WSW 8.1 mph - N/A   Clear
7:15 AM 17.8 °F 8.5 °F 14.4 °F 86% 30.24 in 10.0 mi WSW 6.9 mph - N/A   Clear
7:35 AM 18.3 °F 10.2 °F 14.9 °F 86% 30.24 in 10.0 mi WSW 5.8 mph - N/A   Clear
7:55 AM 18.7 °F 9.5 °F 14.9 °F 85% 30.25 in 10.0 mi West 6.9 mph - N/A   Clear
8:15 AM 19.6 °F 11.7 °F 15.3 °F 83% 30.26 in 10.0 mi West 5.8 mph - N/A   Clear
8:35 AM 20.1 °F 11.3 °F 15.6 °F 83% 30.26 in 10.0 mi West 6.9 mph - N/A   Clear
8:55 AM 22.5 °F 12.4 °F 17.2 °F 80% 30.26 in 10.0 mi West 9.2 mph - N/A   Clear
9:15 AM 24.4 °F 14.9 °F 18.5 °F 78% 30.26 in 10.0 mi West 9.2 mph - N/A   Clear
9:35 AM 26.2 °F 17.1 °F 19.9 °F 77% 30.26 in 10.0 mi WSW 9.2 mph - N/A   Clear
9:55 AM 28.0 °F 20.8 °F 21.0 °F 75% 30.26 in 10.0 mi West 6.9 mph - N/A   Clear
10:15 AM 29.3 °F 21.5 °F 21.7 °F 73% 30.26 in 10.0 mi WSW 8.1 mph - N/A   Clear
10:35 AM 31.1 °F 24.5 °F 23.4 °F 73% 30.25 in 10.0 mi West 6.9 mph - N/A   Clear
10:55 AM 32.9 °F 26.7 °F 24.4 °F 71% 30.25 in 10.0 mi West 6.9 mph - N/A   Clear
11:15 AM 34.2 °F 29.0 °F 25.9 °F 72% 30.25 in 10.0 mi SW 5.8 mph - N/A   Clear
11:35 AM 34.7 °F 27.5 °F 25.9 °F 70% 30.25 in 10.0 mi WSW 9.2 mph - N/A   Clear
11:55 AM 35.4 °F 28.4 °F 25.7 °F 68% 30.25 in 10.0 mi WSW 9.2 mph - N/A   Clear
12:15 PM 35.8 °F 30.1 °F 27.7 °F 72% 30.24 in 10.0 mi WSW 6.9 mph - N/A   Clear
12:35 PM 36.5 °F 29.7 °F 26.6 °F 67% 30.23 in 10.0 mi WSW 9.2 mph - N/A   Clear
12:55 PM 37.2 °F 30.6 °F 27.5 °F 68% 30.22 in 10.0 mi WSW 9.2 mph - N/A   Clear
1:15 PM 37.4 °F 30.8 °F 27.3 °F 67% 30.21 in 10.0 mi SW 9.2 mph - N/A   Clear
1:35 PM 37.4 °F 30.8 °F 27.7 °F 68% 30.20 in 10.0 mi WSW 9.2 mph - N/A   Clear
1:55 PM 37.4 °F 29.8 °F 27.7 °F 68% 30.19 in 10.0 mi SW 11.5 mph - N/A   Clear
2:15 PM 37.4 °F 30.3 °F 28.2 °F 69% 30.18 in 10.0 mi SW 10.4 mph - N/A   Clear
2:35 PM 37.8 °F 30.7 °F 28.4 °F 69% 30.17 in 10.0 mi SW 10.4 mph - N/A   Scattered Clouds
2:55 PM 38.3 °F 30.9 °F 27.5 °F 65% 30.17 in 10.0 mi SW 11.5 mph - N/A   Scattered Clouds
3:15 PM 38.3 °F 31.4 °F 28.6 °F 68% 30.17 in 10.0 mi SSW 10.4 mph - N/A   Clear
3:35 PM 38.3 °F 30.5 °F 29.1 °F 70% 30.16 in 10.0 mi SSW 12.7 mph - N/A   Clear
3:55 PM 38.3 °F 30.9 °F 28.4 °F 68% 30.16 in 10.0 mi SSW 11.5 mph - N/A   Clear
4:15 PM 38.3 °F 31.9 °F 28.2 °F 67% 30.15 in 10.0 mi SSW 9.2 mph - N/A   Clear
4:35 PM 38.3 °F 31.4 °F 28.0 °F 67% 30.14 in 10.0 mi SSW 10.4 mph - N/A   Clear
4:55 PM 37.8 °F 30.7 °F 28.4 °F 69% 30.13 in 10.0 mi SW 10.4 mph - N/A   Scattered Clouds
5:15 PM 37.4 °F 30.8 °F 28.9 °F 71% 30.14 in 10.0 mi SSW 9.2 mph - N/A   Overcast
5:35 PM 37.4 °F 30.8 °F 29.1 °F 72% 30.14 in 10.0 mi SW 9.2 mph - N/A   Overcast
5:55 PM 37.0 °F 31.6 °F 29.3 °F 74% 30.15 in 10.0 mi SW 6.9 mph - N/A   Overcast
6:15 PM 37.4 °F 31.4 °F 28.9 °F 71% 30.13 in 10.0 mi SSW 8.1 mph - N/A   Overcast
6:35 PM 37.8 °F 31.3 °F 29.1 °F 71% 30.13 in 10.0 mi SSW 9.2 mph - N/A   Overcast
6:55 PM 37.6 °F 32.3 °F 29.1 °F 72% 30.13 in 10.0 mi SSW 6.9 mph - N/A   Overcast
7:15 PM 37.6 °F 34.0 °F 28.9 °F 71% 30.12 in 10.0 mi South 4.6 mph - N/A   Mostly Cloudy
7:35 PM 38.1 °F 33.7 °F 29.1 °F 70% 30.11 in 10.0 mi South 5.8 mph - N/A   Overcast
7:55 PM 37.2 °F 31.9 °F 29.3 °F 73% 30.11 in 10.0 mi South 6.9 mph - N/A   Overcast
8:15 PM 36.9 °F 32.2 °F 28.4 °F 71% 30.10 in 10.0 mi South 5.8 mph - N/A   Scattered Clouds
8:35 PM 36.1 °F 29.3 °F 27.5 °F 71% 30.09 in 10.0 mi South 9.2 mph - N/A   Clear
8:55 PM 36.3 °F 30.1 °F 27.0 °F 69% 30.08 in 10.0 mi South 8.1 mph - N/A   Clear
9:15 PM 36.5 °F 29.2 °F 26.6 °F 67% 30.08 in 10.0 mi South 10.4 mph - N/A   Clear
9:35 PM 35.8 °F 28.8 °F 26.6 °F 69% 30.08 in 10.0 mi South 9.2 mph - N/A   Clear
9:55 PM 35.2 °F 28.1 °F 26.4 °F 70% 30.07 in 10.0 mi South 9.2 mph - N/A   Clear
10:15 PM 34.7 °F 27.5 °F 26.2 °F 71% 30.07 in 10.0 mi South 9.2 mph - N/A   Clear
10:35 PM 33.8 °F 25.3 °F 26.1 °F 73% 30.07 in 10.0 mi SSW 11.5 mph - N/A   Clear
10:55 PM 32.9 °F 23.7 °F 25.5 °F 74% 30.06 in 10.0 mi SSW 12.7 mph - N/A   Clear
11:15 PM 32.9 °F 23.2 °F 25.3 °F 74% 30.06 in 10.0 mi SSW 13.8 mph - N/A   Clear
11:35 PM 32.5 °F 23.7 °F 25.2 °F 74% 30.05 in 10.0 mi SSW 11.5 mph - N/A   Clear
11:55 PM 32.7 °F 23.0 °F 25.3 °F 74% 30.05 in 10.0 mi SW 13.8 mph - N/A   Clear